Lid_Strength_Index
13 12 12 13 13 13 14 14 17 15 14 10 9 8 8 7 6 6 5 5 5 6 4 3 4 4 4 3 3 2 3 3 3 2 2 3 4 3 2 3 3 3 4 3
14 12 12 14 12 13 13 13 13 12 12 8 7 6 7 7 6 6 5 5 4 4 4 5 5 4 5 3 3 3 3 3 3 3 4 4 4 3 4 4 4 5 4 6
17 13 12 16 14 13 13 12 12 15 12 9 9 9 8 7 7 7 5 4 4 4 4 4 4 3 4 4 5 5 5 4 3 4 4 4 5 5 5 5 6 6 6 7
16 14 20 14 11 12 13 12 11 11 11 9 9 9 8 7 6 6 5 5 4 4 4 4 4 3 4 5 6 5 5 5 4 5 6 6 6 7 6 7 7 7 8 8
17 17 14 14 13 14 15 15 11 11 11 11 10 10 9 5 5 5 5 4 3 3 4 4 4 4 5 7 7 8 7 6 6 7 7 7 8 7 7 8 8 8 8 9
16 18 20 16 13 11 12 16 12 11 12 12 12 15 11 6 5 5 4 4 4 4 4 5 6 6 7 8 8 9 8 7 7 7 7 7 7 7 8 8 9 8 9 9
16 17 15 13 13 11 18 15 13 13 13 13 13 12 9 8 7 5 4 4 4 4 5 6 7 8 8 9 8 8 8 8 8 8 8 8 8 8 8 9 9 10 9 9
16 16 18 11 14 17 15 14 13 13 13 13 11 11 9 8 8 5 5 4 4 5 6 7 9 9 11 11 10 9 9 9 8 8 8 8 8 9 9 10 11 11 11 12
16 16 12 13 14 12 12 13 14 14 8 10 11 9 8 6 6 5 5 6 6 6 7 9 9 10 11 11 11 10 10 10 9 9 9 8 9 10 10 10 10 11 13 14
16 13 14 13 12 12 12 13 14 10 9 8 9 9 8 7 6 6 6 6 7 7 9 10 10 10 11 11 10 11 10 10 10 10 9 10 9 9 9 10 11 11 12 12
15 13 14 13 13 13 12 13 11 11 10 10 9 9 8 7 7 7 7 8 8 9 10 10 10 11 10 10 11 11 10 10 11 12 13 14 14 12 13 12 10 10 9 9
16 14 14 15 13 12 12 13 12 12 12 10 9 9 8 8 8 7 8 9 10 10 10 10 10 10 10 10 10 11 11 11 12 13 14 14 14 15 15 14 14 14 14 13
13 11 12 11 12 13 13 12 11 11 11 11 10 8 8 8 8 8 8 9 10 10 10 10 10 11 10 10 10 11 11 12 13 12 13 13 14 15 16 15 14 14 14 14
10 11 12 12 14 12 12 11 10 11 10 11 10 9 9 8 8 9 10 10 10 10 11 11 11 12 12 10 12 12 13 12 12 13 12 13 13 13 13 14 15 14 12 11
11 10 10 10 10 11 11 10 11 12 12 11 10 11 11 11 11 10 9 9 11 12 12 12 12 12 11 11 12 12 12 12 12 12 12 12 12 12 12 12 12 12 11 11
10 9 8 9 10 10 11 11 12 12 11 11 11 11 12 13 12 12 11 11 12 12 12 12 12 11 10 10 10 11 11 12 12 11 10 10 10 10 9 10 10 10 9 9
10 9 9 9 9 10 10 11 11 12 11 11 12 12 12 13 13 13 12 12 12 12 11 11 11 10 10 10 10 11 11 10 11 9 9 8 7 8 8 8 8 8 9 11
8 7 8 8 8 9 9 9 10 11 12 12 12 12 12 12 13 13 12 12 11 11 11 11 10 10 10 10 10 9 9 9 7 6 6 6 6 6 7 8 8 9 9 9
6 7 8 8 8 8 8 8 9 10 10 11 12 13 12 12 12 11 11 11 12 12 11 10 11 10 9 9 9 8 7 6 6 6 6 8 7 7 8 8 9 9 8 7
7 7 7 8 8 8 8 8 7 8 9 9 9 11 12 11 11 11 11 11 10 10 8 8 8 7 7 7 7 5 5 6 6 6 6 7 7 7 7 9 7 7 7 7
7 8 8 8 8 8 8 7 8 8 8 7 8 9 9 9 9 10 10 11 9 8 8 10 7 6 6 6 6 6 6 6 6 6 6 7 7 7 7 7 7 7 7 7
7 8 8 8 8 8 8 8 7 8 8 8 8 8 8 8 8 8 8 9 8 10 7 6 7 11 8 8 5 6 6 6 6 6 7 7 7 7 7 7 7 6 6 6
7 7 7 8 8 8 7 8 8 8 8 8 7 7 7 7 7 8 8 6 5 8 6 7 12 12 12 5 5 5 5 6 6 6 6 6 6 6 6 6 6 6 6 6
7 7 7 7 7 8 8 7 6 6 6 6 5 5 6 7 6 6 6 9 10 8 7 8 10 13 12 5 5 5 6 6 6 6 6 8 5 6 6 6 6 6 6 7
6 7 7 7 7 7 7 6 6 6 6 6 5 5 4 5 6 6 6 7 10 8 7 12 12 12 5 5 5 6 6 6 6 6 5 5 5 5 4 4 5 5 5 5
6 7 7 7 7 6 6 6 7 6 6 7 6 5 5 5 5 6 6 7 7 9 7 7 6 5 5 5 6 6 6 6 6 6 6 5 5 5 5 5 5 5 4 5
6 7 6 7 6 6 6 6 7 7 6 6 6 5 5 5 5 6 7 6 7 6 7 6 6 6 6 6 6 5 5 5 7 5 5 5 5 5 5 5 4 4 4 4